Flag for U.S.A. Weather past 2 weeks in Des Moines, Iowa, U.S.A.

Now
46 °F

Passing clouds.


Feels Like: 44 °F
Forecast: 42 / 73 °F
Wind: 5 mph from North

Location: Des Moines International Airport

Current Time: Apr 28, 2015 at 7:25:26 AM

Latest Report: Apr 28, 2015 at 6:54 AM


Visibility: 10 mi

Pressure: 30.17 "Hg

Humidity: 68%

Dew point: 36 °F

Location of Des MoinesLocation

Historic Weather in Des Moines — Graph

°F

Des Moines temperature yesterday

Maximum temperature yesterday: 69 °F (at 4:54 PM)
Minimum temperature yesterday: 40 °F (at 5:54 AM)
Average temperature yesterday: 56 °F

Past Weeks' High & Low Weather Summary

 TemperatureHumidityPressure
High80 °F (Apr 17, 2:54 PM)93% (Apr 18, 7:54 PM)30.29 "Hg (Apr 18, 7:54 PM)
Low34 °F (Apr 22, 4:54 AM)17% (Apr 14, 1:54 PM)29.54 "Hg (Apr 19, 3:54 PM)
Average56 °F51%29.95 "Hg
* Reported Apr 13 5:54 AM — Apr 28 5:54 AM, Des Moines, Weather by CustomWeather, © 2015

Note: Actual official high and low records may vary slightly from our data, if they occured in-between our weather recording intervals... More about our weather records

Advertising

Des Moines weather history for previous 24 hours

 ConditionsComfort  
Time TempWeatherWind HumidityBarometerVisibility
5:54 AM
Tue, Apr 28
45 °FPassing clouds.3 mph74%30.16 "Hg10 mi
4:54 AM47 °FClear.No wind69%30.16 "Hg10 mi
3:54 AM49 °FClear.5 mph64%30.16 "Hg10 mi
2:54 AM46 °FPassing clouds.3 mph77%30.15 "Hg10 mi
1:54 AM49 °FPassing clouds.3 mph64%30.15 "Hg10 mi
12:54 AM52 °FClear.No wind57%30.16 "Hg10 mi
11:54 PM
Mon, Apr 27
54 °FClear.5 mph47%30.15 "Hg10 mi
10:54 PM56 °FClear.No wind46%30.14 "Hg10 mi
9:54 PM59 °FClear.3 mph36%30.13 "Hg10 mi
8:54 PM62 °FPassing clouds.3 mph30%30.12 "Hg10 mi
7:54 PM65 °FPassing clouds.7 mph26%30.10 "Hg10 mi
6:54 PM67 °FPassing clouds.10 mph25%30.10 "Hg10 mi
5:54 PM68 °FPassing clouds.10 mph23%30.10 "Hg10 mi
4:54 PM69 °FPassing clouds.12 mph23%30.11 "Hg10 mi
3:54 PM68 °FPassing clouds.9 mph24%30.12 "Hg10 mi
2:54 PM67 °FScattered clouds.10 mph25%30.14 "Hg10 mi
1:54 PM66 °FScattered clouds.7 mph26%30.16 "Hg10 mi
12:54 PM65 °FPassing clouds.15 mph24%30.18 "Hg10 mi
11:54 AM65 °FPassing clouds.14 mph25%30.19 "Hg10 mi
10:54 AM62 °FPassing clouds.8 mph27%30.20 "Hg10 mi
9:54 AM58 °FPassing clouds.6 mph39%30.19 "Hg10 mi
8:54 AM54 °FScattered clouds.7 mph45%30.18 "Hg10 mi
7:54 AM48 °FPassing clouds.5 mph56%30.17 "Hg10 mi
Weather by CustomWeather, © 2015

See weather overviewHow to use our weather pages